Location: Unspecified
(47.9110°N, 14.3980°E)
Time: 07:46:47
(UTC+00:00)

Cosmos 1437 Rocket - Pass Details

Date: 06 August 2020
Orbit: 506 x 563 km, 81.2° (Epoch: 26 September)

Event Time Altitude Azimuth Distance (km) Brightness Sun altitude
Rises 20:45:48 0° 355° (N) 2,653 7.3 -18.3°
Reaches altitude 10° 20:48:04 10° 3° (N) 1,752 6.1 -18.5°
Maximum altitude 20:51:40 37° 73° (ENE) 804 3.5 -18.8°
Enters shadow 20:52:06 36° 90° (E) 824 3.4 -18.9°
